Location: Unspecified
(43.4354°N, 0.0000°E)
Time: 05:11:27
(UTC+00:00)

Tiros 1 despin weight - Pass Details

Date: 27 June 2019
Orbit: 594 x 642 km, 48.2° (Epoch: 21 July)

Event Time Altitude Azimuth Distance (km) Brightness Sun altitude
Rises 23:41:16 0° 279° (W) 2,856 ? -23.1°
Reaches altitude 10° 23:43:39 10° 286° (WNW) 1,945 ? -23.1°
Maximum altitude 23:47:56 44° 359° (N) 828 ? -23.2°
Drops below altitude 10° 23:52:10 10° 73° (ENE) 1,929 ? -23.2°
Sets 23:54:32 0° 80° (E) 2,828 ? -23.2°
